Jacksonville, AR

5:12 AM CDT on September 28, 2016 (GMT -0500)
Little Rock Air Force Base

Weather History for KLRF - April, 2013

Change the Weather History Date:

Wednesday, April 24, 2013

  Actual Average Record
Temperature  
Mean Temperature 50 °F -  
Max Temperature 62 °F 75 °F 87 °F (2006)
Min Temperature 41 °F 49 °F 36 °F (1982)
Degree Days  
Heating Degree Days 15    
Moisture  
Dew Point 39 °F    
Average Humidity 73    
Maximum Humidity 91    
Minimum Humidity 38    
Precipitation  
Precipitation 0.19 in - - ()
Sea Level Pressure  
Sea Level Pressure 30.17 in    
Wind  
Wind Speed 10 mph (NW)    
Max Wind Speed 16 mph    
Max Gust Speed 22 mph    
Visibility 9 miles    
Events Rain , Thunderstorm    
Averages and records for this station are not official NWS values.
T = Trace of Precipitation, MM = Missing Value Source: NWS Daily Summary

Daily Weather History Graph

Daily Weather History Graph

Search for Another Location

Airport or City:

Trip Planner

Search our weather history database for the weather conditions in past years. The results will help you decide how hot, cold, wet, or windy it might be!

Date:

Astronomy

Apr. 24, 2013 Rise Set
Actual Time 6:25 AM CDT 7:48 PM CDT
Civil Twilight 5:58 AM CDT 8:15 PM CDT
Nautical Twilight 5:27 AM CDT 8:46 PM CDT
Astronomical Twilight 4:53 AM CDT 9:20 PM CDT
Moon 6:53 PM CDT (4/24) 5:26 AM CDT (4/24)
Length of Visible Light 14h 16m
Length of Day
13h 23m
Waxing Gibbous, 98% of the Moon is Illuminated
Apr 24
Waxing Gibbous
Apr 25
Full
May 2
Last Quarter
May 9
New
May 17
First Quarter

Hourly Weather History & Observations

Time (CDT) Temp. Windchill Dew Point Humidity Pressure Visibility Wind Dir Wind Speed Gust Speed Precip Events Conditions
12:58 AM 51.4 °F - 43.9 °F 75% 30.00 in 10.0 mi NW 16.1 mph 19.6 mph N/A   Overcast
1:03 AM 51.8 °F - 44.6 °F 76% 29.98 in 10.0 mi NW 8.1 mph 21.9 mph N/A   Overcast
1:48 AM 50.0 °F - 42.8 °F 76% 30.00 in 10.0 mi NW 12.7 mph - N/A   Overcast
1:58 AM 49.3 °F - 42.1 °F 76% 30.02 in 10.0 mi NNW 8.1 mph - N/A   Overcast
2:58 AM 47.7 °F - 39.6 °F 73% 30.05 in 10.0 mi WNW 10.4 mph - N/A   Overcast
3:58 AM 45.5 °F 39.6 °F 36.9 °F 72% 30.07 in 10.0 mi NNW 12.7 mph 19.6 mph N/A   Overcast
4:10 AM 44.6 °F 38.8 °F 37.4 °F 76% 30.12 in 10.0 mi WNW 11.5 mph 20.7 mph N/A   Overcast
4:13 AM 44.6 °F 39.2 °F 37.4 °F 76% 30.08 in 10.0 mi NNW 10.4 mph 20.7 mph N/A   Overcast
4:15 AM 44.6 °F 38.8 °F 37.4 °F 76% 30.07 in 10.0 mi NW 11.5 mph 20.7 mph N/A Rain Light Rain
4:20 AM 44.6 °F 39.2 °F 39.2 °F 81% 30.08 in 7.0 mi NW 10.4 mph 18.4 mph N/A Rain Rain
4:25 AM 42.8 °F 37.5 °F 39.2 °F 87% 30.10 in 5.0 mi WNW 9.2 mph 18.4 mph N/A Rain Rain
4:30 AM 42.8 °F 38.0 °F 39.2 °F 87% 30.07 in 4.0 mi NNW 8.1 mph - N/A Rain Heavy Rain
4:53 AM 42.8 °F 38.6 °F 39.2 °F 87% 30.09 in 6.0 mi Variable 6.9 mph - N/A Rain , Thunderstorm Light Thunderstorms and Rain
4:58 AM 42.1 °F 38.4 °F 39.2 °F 90% 30.10 in 6.0 mi WNW 5.8 mph - 0.15 in Rain , Thunderstorm Light Thunderstorms and Rain
5:10 AM 42.8 °F 38.6 °F 39.2 °F 87% 30.09 in 8.0 mi NW 6.9 mph - N/A Rain Light Rain
5:58 AM 41.7 °F 36.7 °F 39.2 °F 91% 30.17 in 10.0 mi West 8.1 mph - 0.04 in Thunderstorm Light Drizzle
6:16 AM 42.8 °F 38.6 °F 39.2 °F 87% 30.20 in 10.0 mi West 6.9 mph - N/A   Overcast
6:21 AM 42.8 °F 37.0 °F 39.2 °F 87% 30.19 in 10.0 mi WNW 10.4 mph - N/A   Overcast
6:58 AM 42.1 °F 37.1 °F 38.5 °F 87% 30.17 in 10.0 mi NNW 8.1 mph 17.3 mph 0.00 in   Overcast
7:58 AM 42.4 °F 37.0 °F 38.1 °F 85% 30.18 in 10.0 mi NNW 9.2 mph - N/A   Overcast
8:58 AM 43.9 °F 37.9 °F 37.6 °F 78% 30.21 in 10.0 mi NW 11.5 mph 18.4 mph N/A   Overcast
9:58 AM 45.9 °F 40.8 °F 36.5 °F 70% 30.24 in 10.0 mi NW 10.4 mph 20.7 mph N/A   Overcast
10:53 AM 50.0 °F - 37.4 °F 62% 30.24 in 10.0 mi NNW 10.4 mph 17.3 mph N/A   Mostly Cloudy
10:58 AM 50.2 °F - 37.2 °F 61% 30.25 in 10.0 mi NNW 11.5 mph 17.3 mph N/A   Mostly Cloudy
11:18 AM 50.0 °F - 37.4 °F 62% 30.25 in 10.0 mi NW 11.5 mph - N/A   Mostly Cloudy
11:38 AM 50.0 °F - 37.4 °F 62% 30.26 in 10.0 mi NNW 10.4 mph 19.6 mph N/A   Mostly Cloudy
11:58 AM 50.5 °F - 37.2 °F 60% 30.26 in 10.0 mi Variable 5.8 mph - N/A   Mostly Cloudy
12:22 PM 51.8 °F - 37.4 °F 58% 30.27 in 7.0 mi NW 11.5 mph - N/A   Scattered Clouds
12:58 PM 53.8 °F - 37.2 °F 54% 30.26 in 10.0 mi NW 10.4 mph 16.1 mph N/A   Partly Cloudy
1:58 PM 55.6 °F - 36.3 °F 48% 30.25 in 10.0 mi Variable 3.5 mph 21.9 mph N/A   Clear
2:58 PM 58.1 °F - 36.9 °F 45% 30.25 in 10.0 mi Variable 4.6 mph - N/A   Partly Cloudy
6:58 PM 59.2 °F - 33.4 °F 38% 30.23 in 10.0 mi NW 5.8 mph - N/A   Clear
7:58 PM 52.3 °F - 39.9 °F 63% 30.25 in 10.0 mi NNW 3.5 mph - N/A   Clear
8:58 PM 47.8 °F - 39.6 °F 73% 30.27 in 10.0 mi ENE 2.3 mph - N/A   Clear
9:58 PM 45.9 °F - 39.9 °F 80% 30.30 in 10.0 mi Calm Calm - N/A   Clear
10:56 PM 44.6 °F 43.1 °F 39.2 °F 81% 30.30 in 10.0 mi West 3.5 mph - N/A   Clear
10:58 PM 45.0 °F 43.5 °F 39.0 °F 80% 30.31 in 10.0 mi West 3.5 mph - N/A   Clear
11:58 PM 42.8 °F - 39.0 °F 86% 30.31 in 10.0 mi Calm Calm - N/A   Clear